Location: Newark
(35.6799°N, 139.7636°E)
Time: 07:27:04
(UTC+00:00)

Vanguard 1 Rocket - Pass Details

Date: 20 December 2019
Orbit: 650 x 4226 km, 34.3° (Epoch: 27 January)

Event Time Altitude Azimuth Distance (km) Brightness Sun altitude
Rises 09:39:13 0° 249° (WSW) 8,448 13.6 -25.3°
Reaches altitude 10° 09:45:09 10° 249° (WSW) 7,420 13.0 -26.5°
Maximum altitude 10:10:32 80° 167° (SSE) 3,298 10.0 -31.6°
Enters shadow 10:16:51 50° 91° (E) 3,325 9.7 -32.8°
